User: anonymous   Login
Location: Alexandria
(38.8050°N, 77.0470°W)
Time: 19:34:22
(UTC-04:00)
Language:

Vanguard 2 Rocket - Orbit

View from above orbital plane
View from above orbital plane
View from above satellite
View from above satellite

Ground track
Ground track

The orbit data is extracted from the following two-line orbital elements,

1    12U 59001B   18144.33551130 +.00000209 +00000-0 +13032-3 0  9990
2    12 032.8975 112.7607 1667259 066.1865 310.4343 11.44231261193467
Epoch (UTC): 24 May 2018 08:03:08
Eccentricity: 0.1667259
inclination: 32.8975°
perigee height: 553 km
apogee height: 3327 km
right ascension of ascending node: 112.7607°
argument of perigee: 66.1865°
revolutions per day: 11.44231261
mean anomaly at epoch: 310.4343°
orbit number at epoch: 19346

The dashed part of the orbit path shows where the satellite is in the earth's shadow,  

DLR